Regional Weather Roundup
Issued by NWS

Home | Current Version | Previous Version | Text Only | Print | Product List | Glossary On
Versions: 1 2 3 4 5 6 7 8 9 10 11 12 13 14 15 16 17 18 19 20 21 22 23 24 25 26 27 28 29 30 31 32 33 34 35 36 37 38 39 40 41 42 43 44 45 46 47 48 49 50
000
ASCA42 TJSJ 050310
RWRPR
PUERTO RICO/U.S. VIRGIN ISLANDS HOURLY WEATHER ROUNDUP
NATIONAL WEATHER SERVICE SAN JUAN PR
1100 PM AST WED MAY 04 2016

PRZ001-004-050400-
PUERTO RICO

CITY           SKY/WX    TMP DP  RH WIND       PRES   REMARKS
SAN JUAN LMM   PTCLDY    79  75  89 E5        30.00R
PONCE          PTCLDY    77  73  88 NE6       29.99
CEIBA          MOCLDY    81  73  78 E7        30.03R
$$

PRZ006-007-050400-
U.S. VIRGIN ISLANDS

CITY           SKY/WX    TMP DP  RH WIND       PRES   REMARKS
CHARLOTTE AMA  CLEAR     81  73  78 E8        30.00R
CHRISTIANSTED  CLEAR     79  73  83 NE5       30.01S
$$

HOURLY WEATHER ROUNDUP FOR THE NEWS MEDIA

CITY           SKY/WX    TMP DP  RH WIND       PRES   REMARKS
ORLANDO        CLEAR     70  65  84 W10       29.67S
NEW YORK       CLOUDY    49  42  77 NE15      29.75F
NEWARK         CLOUDY    50  43  77 NE9G21    29.74F
CHICAGO        PTCLDY    43  34  70 N16G26    29.88R
HARTFORD       CLOUDY    45  43  93 NE15G22   29.72F
BOSTON         LGT RAIN  44  42  93 N13       29.80F
DALLAS         CLEAR     73  53  49 CALM      29.97R
PHILADELPHIA   CLOUDY    51  47  86 NE6       29.73F
LOS ANGELES    MOCLDY    60  52  74 W13       29.92R
WASHINGTON DC  CLOUDY    54  50  86 E8        29.69R


USA.gov is the U.S. government's official web portal to all federal, state and local government web resources and services.